KF5WCW-1 Weather Reports


time (UTC)temp
F
wind
direction
speed
knots
gust
knots
rain 1hr
in
rain 24hr
in
rain mn
in
humidity
%
barometer
mb
20260906225622 84 163 8.7 9.6 0.00 0.00 0.00 15
20260906225122 83 73 0.0 5.2 0.00 0.00 0.00 15
20260906224622 83 142 2.6 7.0 0.00 0.00 0.00 15
20260906224122 84 116 3.5 6.1 0.00 0.00 0.00 15
20260906223622 84 129 0.0 8.7 0.00 0.00 0.00 14
20260906223122 83 180 5.2 11.3 0.00 0.00 0.00 14
20260906222622 83 133 0.0 7.0 0.00 0.00 0.00 15
20260906222122 83 113 6.1 11.3 0.00 0.00 0.00 14
20260906221622 83 123 7.0 13.0 0.00 0.00 0.00 13
20260906221122 84 171 0.0 11.3 0.00 0.00 0.00 13
20260906220622 84 99 6.1 13.9 0.00 0.00 0.00 13
20260906220122 84 133 7.8 17.4 0.00 0.00 0.00 12
20260906215622 85 201 5.2 9.6 0.00 0.00 0.00 11
20260906215122 85 140 4.3 9.6 0.00 0.00 0.00 11
20260906214622 85 129 4.3 9.6 0.00 0.00 0.00 11
20260906214122 85 154 6.1 9.6 0.00 0.00 0.00 11
20260906213622 85 174 4.3 9.6 0.00 0.00 0.00 11
20260906213122 85 171 5.2 9.6 0.00 0.00 0.00 10
20260906212622 85 120 6.1 11.3 0.00 0.00 0.00 10
20260906212122 85 82 1.7 6.1 0.00 0.00 0.00 11
20260906211622 85 68 0.0 13.0 0.00 0.00 0.00 11
20260906211122 85 126 5.2 12.2 0.00 0.00 0.00 12
20260906210622 85 174 3.5 9.6 0.00 0.00 0.00 12
20260906210122 84 122 7.8 9.6 0.00 0.00 0.00 13
20260906205622 84 187 7.8 8.7 0.00 0.00 0.00 13
20260906205122 84 42 2.6 10.4 0.00 0.00 0.00 15
20260906204622 84 70 4.3 9.6 0.00 0.00 0.00 16
20260906204122 84 144 7.0 10.4 0.00 0.00 0.00 16
20260906203622 84 60 1.7 6.1 0.00 0.00 0.00 16
20260906203122 83 174 5.2 10.4 0.00 0.00 0.00 16
20260906202622 83 119 6.1 10.4 0.00 0.00 0.00 16
20260906202122 82 116 4.3 10.4 0.00 0.00 0.00 16
20260906201622 82 106 7.8 9.6 0.00 0.00 0.00 16
20260906201122 83 219 0.0 8.7 0.00 0.00 0.00 17
20260906200622 82 146 6.1 8.7 0.00 0.00 0.00 17
20260906200122 82 109 5.2 6.1 0.00 0.00 0.00 18
20260906195622 82 177 3.5 7.8 0.00 0.00 0.00 19
20260906195122 82 150 0.0 0.9 0.00 0.00 0.00 20
20260906194622 82 150 0.0 6.1 0.00 0.00 0.00 20
20260906194122 81 119 4.3 8.7 0.00 0.00 0.00 21
20260906193623 81 130 0.0 6.1 0.00 0.00 0.00 21
20260906193122 80 180 4.3 8.7 0.00 0.00 0.00 22
20260906192622 79 104 6.1 8.7 0.00 0.00 0.00 22
20260906192122 79 130 0.0 6.1 0.00 0.00 0.00 23
20260906191622 79 182 5.2 7.0 0.00 0.00 0.00 23
20260906191122 78 120 0.0 6.1 0.00 0.00 0.00 23
20260906190622 78 154 3.5 7.0 0.00 0.00 0.00 23
20260906190122 79 104 5.2 7.0 0.00 0.00 0.00 24
20260906185622 79 113 0.0 7.8 0.00 0.00 0.00 23
20260906185122 79 132 3.5 8.7 0.00 0.00 0.00 23
20260906184622 79 98 0.0 6.1 0.00 0.00 0.00 24
20260906184122 79 167 4.3 6.1 0.00 0.00 0.00 24
20260906183622 79 175 6.1 8.7 0.00 0.00 0.00 23
20260906183122 79 175 5.2 8.7 0.00 0.00 0.00 23
20260906182622 79 225 0.0 5.2 0.00 0.00 0.00 24
20260906182122 79 165 2.6 6.1 0.00 0.00 0.00 24
20260906181622 78 61 0.0 6.1 0.00 0.00 0.00 26
20260906181122 78 146 6.1 7.8 0.00 0.00 0.00 27
20260906180623 77 123 4.3 7.8 0.00 0.00 0.00 27
20260906180123 77 164 5.2 9.6 0.00 0.00 0.00 27
20260906175622 77 239 1.7 9.6 0.00 0.00 0.00 28
20260906175122 77 143 3.5 9.6 0.00 0.00 0.00 29
20260906174622 76 178 7.0 9.6 0.00 0.00 0.00 30
20260906174122 76 165 3.5 8.7 0.00 0.00 0.00 31
20260906173622 76 189 0.9 6.1 0.00 0.00 0.00 33
20260906173122 75 146 2.6 7.0 0.00 0.00 0.00 33
20260906172622 75 174 6.1 8.7 0.00 0.00 0.00 34
20260906172122 74 168 5.2 7.0 0.00 0.00 0.00 34
20260906171622 75 185 7.0 7.0 0.00 0.00 0.00 33
20260906171122 74 125 6.1 7.8 0.00 0.00 0.00 32
20260906170622 74 133 0.0 7.0 0.00 0.00 0.00 33
20260906170122 74 150 4.3 7.8 0.00 0.00 0.00 34
20260906165622 73 177 2.6 7.8 0.00 0.00 0.00 34
20260906165122 73 175 0.0 7.0 0.00 0.00 0.00 34
20260906164622 73 126 2.6 7.0 0.00 0.00 0.00 34
20260906164122 73 182 0.9 5.2 0.00 0.00 0.00 36
20260906163622 72 151 0.0 2.6 0.00 0.00 0.00 36
20260906163122 72 139 0.0 7.0 0.00 0.00 0.00 36
20260906162623 72 136 2.6 6.1 0.00 0.00 0.00 37
20260906162122 71 189 1.7 4.3 0.00 0.00 0.00 35
20260906161623 72 80 0.0 0.0 0.00 0.00 0.00 37
20260906161122 71 80 0.0 0.0 0.00 0.00 0.00 36
20260906160623 71 80 0.0 0.0 0.00 0.00 0.00 37
20260906160123 71 80 0.0 0.0 0.00 0.00 0.00 38
20260906155623 71 80 0.0 0.0 0.00 0.00 0.00 38
20260906155123 70 80 0.0 0.0 0.00 0.00 0.00 39
20260906154623 70 80 0.0 0.0 0.00 0.00 0.00 38
20260906154123 70 80 0.0 0.0 0.00 0.00 0.00 40
20260906153623 70 80 0.0 0.0 0.00 0.00 0.00 41
20260906153123 70 80 0.0 0.0 0.00 0.00 0.00 41
20260906152623 69 80 0.0 0.0 0.00 0.00 0.00 41
20260906152123 69 80 0.0 0.0 0.00 0.00 0.00 42
20260906151623 68 80 0.0 2.6 0.00 0.00 0.00 43
20260906151123 68 111 2.6 2.6 0.00 0.00 0.00 43
20260906150623 68 146 0.0 1.7 0.00 0.00 0.00 44
20260906150123 67 50 0.0 0.0 0.00 0.00 0.00 45
20260906145623 66 50 0.0 0.0 0.00 0.00 0.00 46
20260906145123 65 50 0.0 0.0 0.00 0.00 0.00 48
20260906144623 64 50 0.0 0.9 0.00 0.00 0.00 50
20260906144123 63 123 0.0 0.0 0.00 0.00 0.00 52
20260906143623 62 123 0.0 0.0 0.00 0.00 0.00 53
20260906143123 61 123 0.0 0.0 0.00 0.00 0.00 54
20260906142623 60 123 0.0 0.0 0.00 0.00 0.00 56
20260906142123 60 123 0.0 0.0 0.00 0.00 0.00 56
20260906141623 59 123 0.0 0.0 0.00 0.00 0.00 58
20260906141123 59 123 0.0 0.0 0.00 0.00 0.00 60
20260906140623 58 123 0.0 0.0 0.00 0.00 0.00 62
20260906140123 57 123 0.0 0.0 0.00 0.00 0.00 63
20260906135623 56 123 0.0 0.0 0.00 0.00 0.00 65
20260906135123 55 123 0.0 0.9 0.00 0.00 0.00 68
20260906134623 54 226 0.0 0.0 0.00 0.00 0.00 70
20260906134123 53 226 0.0 0.0 0.00 0.00 0.00 73
20260906133623 53 226 0.0 0.0 0.00 0.00 0.00 74
20260906133123 52 226 0.0 0.0 0.00 0.00 0.00 75
20260906132623 52 226 0.0 0.0 0.00 0.00 0.00 75
20260906132123 51 226 0.0 0.0 0.00 0.00 0.00 76
20260906131623 51 226 0.0 0.0 0.00 0.00 0.00 79
20260906131123 51 226 0.0 0.0 0.00 0.00 0.00 79
20260906130623 51 226 0.0 0.0 0.00 0.00 0.00 79
20260906130123 50 226 0.0 0.0 0.00 0.00 0.00 79
20260906125623 50 226 0.0 0.0 0.00 0.00 0.00 80
20260906125123 50 226 0.0 0.0 0.00 0.00 0.00 80
20260906124623 50 226 0.0 0.0 0.00 0.00 0.00 77
20260906124123 50 226 0.0 0.0 0.00 0.00 0.00 76
20260906123623 50 226 0.0 0.0 0.00 0.00 0.00 75
20260906123123 50 226 0.0 0.0 0.00 0.00 0.00 75
20260906122623 51 226 0.0 0.0 0.00 0.00 0.00 76
20260906122123 51 226 0.0 0.0 0.00 0.00 0.00 74
20260906121623 51 226 0.0 0.9 0.00 0.00 0.00 73
20260906121123 52 201 0.9 0.9 0.00 0.00 0.00 73
20260906120623 52 180 0.0 0.0 0.00 0.00 0.00 74
20260906120123 53 180 0.0 0.0 0.00 0.00 0.00 74
20260906115623 53 180 0.0 0.0 0.00 0.00 0.00 73
20260906115123 53 180 0.0 2.6 0.00 0.00 0.00 72
20260906114623 54 330 0.0 0.0 0.00 0.00 0.00 71
20260906114123 54 330 0.0 0.0 0.00 0.00 0.00 70
20260906113623 53 330 0.0 0.0 0.00 0.00 0.00 73
20260906113123 53 330 0.0 0.0 0.00 0.00 0.00 73
20260906112623 53 330 0.0 0.0 0.00 0.00 0.00 73
20260906112123 53 330 0.0 0.0 0.00 0.00 0.00 73
20260906111623 53 330 0.0 3.5 0.00 0.00 0.00 72
20260906111123 54 279 0.0 0.0 0.00 0.00 0.00 71
20260906110623 54 279 0.0 0.0 0.00 0.00 0.00 70
20260906110123 53 279 0.0 0.0 0.00 0.00 0.00 70
20260906105623 53 279 0.0 0.0 0.00 0.00 0.00 71
20260906105123 54 279 0.0 0.0 0.00 0.00 0.00 72
20260906104623 54 279 0.0 0.0 0.00 0.00 0.00 73
20260906104123 54 279 0.0 0.0 0.00 0.00 0.00 73
20260906103623 54 279 0.0 0.0 0.00 0.00 0.00 71
20260906103123 54 279 0.0 0.0 0.00 0.00 0.00 72
20260906102623 54 279 0.0 0.0 0.00 0.00 0.00 72
20260906102123 55 279 0.0 0.0 0.00 0.00 0.00 73
20260906101623 55 279 0.0 0.0 0.00 0.00 0.00 72
20260906101123 55 279 0.0 0.0 0.00 0.00 0.00 72
20260906100623 55 279 0.0 0.0 0.00 0.00 0.00 72
20260906100123 55 279 0.0 0.0 0.00 0.00 0.00 72
20260906095623 55 279 0.0 0.0 0.00 0.00 0.00 69
20260906095123 56 279 0.0 0.0 0.00 0.00 0.00 70
20260906094623 56 279 0.0 0.0 0.00 0.00 0.00 67
20260906094123 56 279 0.0 0.0 0.00 0.00 0.00 68
20260906093623 56 279 0.0 0.0 0.00 0.00 0.00 67
20260906093123 57 279 0.0 0.0 0.00 0.00 0.00 67
20260906092623 57 279 0.0 0.0 0.00 0.00 0.00 67
20260906092123 57 279 0.0 0.0 0.00 0.00 0.00 64
20260906091623 57 279 0.0 0.0 0.00 0.00 0.00 65
20260906091123 57 279 0.0 0.0 0.00 0.00 0.00 63
20260906090623 58 279 0.0 0.0 0.00 0.00 0.00 64
20260906090123 58 279 0.0 0.0 0.00 0.00 0.00 63
20260906085623 58 279 0.0 0.0 0.00 0.00 0.00 62
20260906085123 58 279 0.0 0.0 0.00 0.00 0.00 61
20260906084623 58 279 0.0 0.0 0.00 0.00 0.00 62
20260906084123 58 279 0.0 0.0 0.00 0.00 0.00 62
20260906083623 58 279 0.0 0.0 0.00 0.00 0.00 61
20260906083123 58 279 0.0 0.0 0.00 0.00 0.00 62
20260906082623 58 279 0.0 0.0 0.00 0.00 0.00 64
20260906082123 58 279 0.0 0.0 0.00 0.00 0.00 60
20260906081623 59 279 0.0 0.0 0.00 0.00 0.00 59
20260906081123 59 279 0.0 0.0 0.00 0.00 0.00 59
20260906080623 59 279 0.0 0.0 0.00 0.00 0.00 58
20260906080123 60 279 0.0 0.0 0.00 0.00 0.00 58
20260906075623 60 279 0.0 0.0 0.00 0.00 0.00 57
20260906075123 60 279 0.0 0.0 0.00 0.00 0.00 56
20260906074623 61 279 0.0 0.0 0.00 0.00 0.00 57
20260906074123 61 279 0.0 0.0 0.00 0.00 0.00 54
20260906073623 61 279 0.0 0.0 0.00 0.00 0.00 54
20260906073123 61 279 0.0 0.0 0.00 0.00 0.00 54
20260906072623 61 279 0.0 0.0 0.00 0.00 0.00 55
20260906072123 61 279 0.0 0.0 0.00 0.00 0.00 55
20260906071623 62 279 0.0 0.0 0.00 0.00 0.00 56
20260906071123 62 279 0.0 0.0 0.00 0.00 0.00 55
20260906070623 62 279 0.0 0.0 0.00 0.00 0.00 54
20260906070123 61 279 0.0 0.0 0.00 0.00 0.00 55
20260906065623 61 279 0.0 0.0 0.00 0.00 0.00 55
20260906065123 61 279 0.0 0.0 0.00 0.00 0.00 57
20260906064623 62 279 0.0 0.0 0.00 0.00 0.00 56
20260906064123 62 279 0.0 0.0 0.00 0.00 0.00 57
20260906063623 62 279 0.0 0.0 0.00 0.00 0.00 55
20260906063124 62 279 0.0 0.0 0.00 0.00 0.00 56
20260906062623 62 279 0.0 0.0 0.00 0.00 0.00 55
20260906062123 62 279 0.0 0.0 0.00 0.00 0.00 55
20260906061623 62 279 0.0 0.0 0.00 0.00 0.00 55
20260906061123 62 279 0.0 0.0 0.00 0.00 0.00 54
20260906060623 62 279 0.0 0.0 0.00 0.00 0.00 53
20260906060123 62 279 0.0 0.0 0.00 0.00 0.00 52
20260906055623 63 279 0.0 0.0 0.00 0.00 0.00 54
20260906055123 63 279 0.0 0.0 0.00 0.00 0.00 52
20260906054623 63 279 0.0 0.0 0.00 0.00 0.00 50
20260906054124 63 279 0.0 0.9 0.00 0.00 0.00 53
20260906053623 63 275 0.0 4.3 0.00 0.00 0.00 50
20260906053124 63 277 0.0 0.0 0.00 0.00 0.00 52
20260906052624 63 277 0.0 0.0 0.00 0.00 0.00 50
20260906052124 64 277 0.0 0.0 0.00 0.00 0.00 50
20260906051624 64 277 0.0 0.0 0.00 0.00 0.00 49
20260906051124 65 277 0.0 0.0 0.00 0.00 0.00 47
20260906050624 65 277 0.0 0.0 0.00 0.00 0.00 47
20260906050124 65 277 0.0 0.0 0.00 0.00 0.00 46
20260906045624 66 277 0.0 0.0 0.00 0.00 0.00 46
20260906045124 66 277 0.0 0.0 0.00 0.00 0.00 45
20260906044624 67 277 0.0 0.0 0.00 0.00 0.00 44
20260906044124 67 277 0.0 2.6 0.00 0.00 0.00 45
20260906043624 67 307 0.0 0.0 0.00 0.00 0.00 43
20260906043124 67 307 0.0 0.0 0.00 0.00 0.00 43
20260906042624 67 307 0.0 0.0 0.00 0.00 0.00 44
20260906042124 68 307 0.0 0.0 0.00 0.00 0.00 44
20260906041624 67 307 0.0 0.0 0.00 0.00 0.00 44
20260906041124 68 307 0.0 2.6 0.00 0.00 0.00 46
20260906040624 68 184 0.0 0.0 0.00 0.00 0.00 44
20260906040124 69 184 0.0 0.0 0.00 0.00 0.00 43
20260906035624 70 184 0.0 0.0 0.00 0.00 0.00 41
20260906035124 70 184 0.0 0.0 0.00 0.00 0.00 40
20260906034624 71 184 0.0 0.0 0.00 0.00 0.00 39
20260906034124 71 184 0.0 0.0 0.00 0.00 0.00 38
20260906033624 71 184 0.0 0.0 0.00 0.00 0.00 37
20260906033124 72 184 0.0 0.0 0.00 0.00 0.00 36
20260906032624 73 184 0.0 0.0 0.00 0.00 0.00 35
20260906032124 73 184 0.0 0.0 0.00 0.00 0.00 34
20260906031624 73 184 0.0 0.0 0.00 0.00 0.00 33
20260906031124 74 184 0.0 1.7 0.00 0.00 0.00 32
20260906030624 74 78 1.7 5.2 0.00 0.00 0.00 31
20260906030124 75 330 0.0 0.0 0.00 0.00 0.00 31
20260906025624 75 330 0.0 0.0 0.00 0.00 0.00 30
20260906025124 75 330 0.0 0.0 0.00 0.00 0.00 30
20260906024624 75 330 0.0 0.0 0.00 0.00 0.00 29
20260906024124 75 330 0.0 0.0 0.00 0.00 0.00 28
20260906023624 75 330 0.0 0.9 0.00 0.00 0.00 29
20260906023124 75 261 0.0 7.0 0.00 0.00 0.00 29
20260906022624 75 243 7.0 8.7 0.00 0.00 0.00 28
20260906022124 76 194 7.0 8.7 0.00 0.00 0.00 26
20260906021624 77 143 7.0 11.3 0.00 0.00 0.00 25
20260906021124 76 123 4.3 4.3 0.00 0.00 0.00 27
20260906020624 76 163 1.7 8.7 0.00 0.00 0.00 27
20260906020124 76 113 1.7 10.4 0.00 0.00 0.00 27
20260906015624 76 95 4.3 7.8 0.00 0.00 0.00 27
20260906015124 77 92 2.6 7.8 0.00 0.00 0.00 26
20260906014624 77 37 0.0 7.8 0.00 0.00 0.00 26
20260906014124 77 144 4.3 7.0 0.00 0.00 0.00 26
20260906013624 77 158 4.3 7.8 0.00 0.00 0.00 26
20260906013124 78 168 0.0 8.7 0.00 0.00 0.00 25
20260906012624 78 127 1.7 5.2 0.00 0.00 0.00 23
20260906012124 79 136 0.0 8.7 0.00 0.00 0.00 23
20260906011624 79 137 5.2 8.7 0.00 0.00 0.00 23
20260906011124 80 181 0.9 7.8 0.00 0.00 0.00 23
20260906010624 80 104 0.0 2.6 0.00 0.00 0.00 21
20260906010124 80 158 0.0 0.0 0.00 0.00 0.00 21
20260906005624 80 158 0.0 0.0 0.00 0.00 0.00 20
20260906005124 80 158 0.0 0.0 0.00 0.00 0.00 20
20260906004624 80 158 0.0 0.9 0.00 0.00 0.00 20
20260906004124 80 196 0.0 0.0 0.00 0.00 0.00 21
20260906003624 80 196 0.0 1.7 0.00 0.00 0.00 21
20260906003124 80 220 0.9 2.6 0.00 0.00 0.00 20
20260906002624 80 130 0.9 1.7 0.00 0.00 0.00 19
20260906002124 80 210 0.0 4.3 0.00 0.00 0.00 20
20260906001624 80 168 3.5 5.2 0.00 0.00 0.00 20
20260906001124 81 126 0.0 3.5 0.00 0.00 0.00 20
20260906000624 81 120 0.0 0.0 0.00 0.00 0.00 20
20260906000124 81 120 0.0 4.3 0.00 0.00 0.00 20
20260905235624 81 205 3.5 5.2 0.00 0.00 0.00 19
20260905235124 81 244 0.9 8.7 0.00 0.00 0.00 18
20260905234624 82 158 4.3 5.2 0.00 0.00 0.00 18
20260905234124 82 143 0.9 5.2 0.00 0.00 0.00 18
20260905233624 82 161 0.0 2.6 0.00 0.00 0.00 18
20260905233124 82 108 0.0 4.3 0.00 0.00 0.00 17
20260905232624 82 146 0.9 5.2 0.00 0.00 0.00 17
20260905232124 82 130 0.0 7.8 0.00 0.00 0.00 17
20260905231624 82 92 0.0 3.5 0.00 0.00 0.00 17
20260905231124 82 180 0.0 5.2 0.00 0.00 0.00 17
20260905230624 83 147 0.0 6.1 0.00 0.04 0.00 16
20260905230124 83 160 2.6 7.0 0.00 0.04 0.00 16